Weather in Orel

Russia / Perm Krai     59°20′25″N   56°35′15″E
temp.,
°C
wind,
m/s
gust,
m/s
humid.,
%
clouds,
%
prec.,
mm/h
press.,
hPa
HPBL,
m
26 february, fri
fri2623:00−24sse22979 0.0 102720
02:00−25se229882 0.0 102631
05:00−25sse239887 0.0 102755
08:00−26sse279699 0.0 1026139
11:00−22sse369283 0.0 1025283
14:00−17s36848 0.0 1024501
17:00−15sse378530 0.0 1022624
20:00−19sse3119339 0.0 1021292
27 february, sat
sat2723:00−20se3109420 0.0 1019260
02:00−20se311920 0.0 1017275
05:00−21se39910 0.0 1016239
08:00−21ese310910 0.0 1014232
11:00−16ese48790 0.0 1013404
14:00−12ese48810 0.0 1011576
17:00−13ese498322 0.0 1011761
20:00−19e31190100 0.0 1012537
28 february, sun
sun2823:00−21e279183 0.0 1013185
02:00−23ene37910 0.0 1013135
05:00−24ne23920 0.0 101466
08:00−24ne239316 0.0 101365
11:00−18ene26858 0.0 1014373
14:00−13ne358432 0.0 1013557
17:00−12nne358563 0.0 1014631
20:00−17ne229433 0.0 101520
1 march, mon
mon123:00−21e119616 0.0 101820
02:00−23sw129512 0.0 101920
05:00−24sw119520 0.0 102020
08:00−25s11951 0.0 102120
11:00−20ssw11900 0.0 1020200
14:00−15ssw228456 0.0 1019353
17:00−14ssw239174 0.0 1018303
20:00−19s249931 0.0 101673
2 march, tue
tue223:00−18s399652 0.0 1014250
02:00−16s51194100 0.0 1011398
05:00−16s51291100 0.0 1008469
08:00−15s51294100 0.6 1005549
11:00−14ssw51093100 1.4 1004580
14:00−13ssw5992100 0.8 1002572
17:00−12s4992100 1.1 1001515
20:00−13s4994100 0.4 1001412